Location: 5810 Zion Rd, Cleves, OH 45002, USA
(39.1922°N, 84.7113°W)
Time: 23:13:21
(UTC-05:00)

ISS - Visible Passes

Search period start: 25 February 2021 00:00
Search period end: 07 March 2021 00:00
Orbit: 417 x 422 km, 51.6° (Epoch: 26 February)

Date Brightness Start Highest point End Pass type
(mag) Time Alt. Az. Time Alt. Az. Time Alt. Az.
25 Feb -1.2 05:02:06 19° NE 05:02:06 19° NE 05:03:11 10° NE visible
25 Feb -1.5 06:35:21 10° NW 06:37:15 14° NNW 06:39:10 10° NNE visible
26 Feb -1.8 05:49:35 18° NNW 05:49:35 18° NNW 05:51:58 10° NNE visible
27 Feb -1.0 05:04:01 14° NNE 05:04:01 14° NNE 05:04:45 10° NNE visible
27 Feb -1.2 06:39:00 10° NNW 06:39:42 10° N 06:40:25 10° N visible
28 Feb -1.3 05:51:21 11° NNW 05:51:56 12° NNW 05:53:16 10° NNE visible
01 Mar -0.8 05:05:41 11° NNE 05:05:41 11° NNE 05:06:05 10° NNE visible
01 Mar -1.0 06:41:45 10° N 06:42:10 10° N 06:42:37 10° NNE visible
03 Mar -0.8 05:07:14 10° N 05:07:14 10° N 05:07:16 10° N visible
03 Mar -1.1 06:42:54 10° NNW 06:44:34 13° NNE 06:46:13 10° NE visible
04 Mar -1.0 05:55:42 10° N 05:56:46 11° N 05:57:51 10° NNE visible
05 Mar -0.8 05:08:46 10° N 05:08:57 10° N 05:09:23 10° NNE visible
06 Mar -1.2 05:56:50 10° NNW 05:59:02 16° NNE 06:01:14 10° ENE visible
